Retour au catalogue

ONEWEB-0280

ActifCommunicationsPO
NORAD 48998·PAYLOAD·🇬🇧 United Kingdom

Lancé Jul 1, 2021 depuis Vostochny Cosmodrome

Loading…

Prochains Passages (prochaines 24 heures)

TLE

FraisSource: CelesTrak SupGP

Époque: Sep 14, 2026, 23:40 UTC

1 48998C 21060AH  26257.98627729 -.00003842  00000+0 -10063-1 0  2575
2 48998  87.9147 210.9463 0001787  74.4629  25.4123 13.16595722    15

Suivez ONEWEB-0280 en temps réel avec AllMySat

Download on the App Store